Location: ??????????
(48.4699°N, 37.9573°E)
Time: 21:04:02
(UTC+00:00)

USA 229 DEB - Pass Details

Date: 20 January 2021
Orbit: 965 x 1247 km, 63.4° (Epoch: 26 February)

Event Time Altitude Azimuth Distance (km) Brightness Sun altitude
Rises 16:01:50 0° 316° (NW) 3,900 7.1 -18.5°
Reaches altitude 10° 16:04:34 10° 322° (NW) 2,982 6.4 -18.9°
Maximum altitude 16:11:27 48° 36° (NE) 1,496 4.1 -20.0°
Enters shadow 16:14:20 33° 87° (E) 1,874 4.4 -20.5°
